Change the Weather History Date:

Wednesday, April 10, 2013

  Actual Average Record
Temperature  
Mean Temperature 50 °F 57 °F  
Max Temperature 67 °F 72 °F 91 °F (1907)
Min Temperature 33 °F 42 °F 26 °F (1906)
Degree Days  
Heating Degree Days 15 9  
Month to date heating degree days 71 97  
Since 1 July heating degree days 2796 2928  
Cooling Degree Days 0 1  
Month to date cooling degree days 0 3  
Year to date cooling degree days 6 6  
Moisture  
Dew Point 18 °F    
Average Humidity 37    
Maximum Humidity 61    
Minimum Humidity 12    
Precipitation  
Precipitation 0.00 in 0.01 in 0.97 in (1905)
Month to date precipitation 0.05 0.16  
Year to date precipitation 1.18 3.08  
Sea Level Pressure  
Sea Level Pressure 29.96 in    
Wind  
Wind Speed 11 mph (NNE)    
Max Wind Speed 6 mph    
Max Gust Speed 7 mph    
Visibility 10 miles    
Events      
T = Trace of Precipitation, MM = Missing Value Source: NWS Daily Summary

Daily Weather History Graph

Daily Weather History Graph

Search for Another Location

Airport or City:

Trip Planner

Search our weather history database for the weather conditions in past years. The results will help you decide how hot, cold, wet, or windy it might be!

Date:

Astronomy

Apr. 10, 2013 Rise Set
Actual Time 6:09 AM MST 7:04 PM MST
Civil Twilight 5:43 AM MST 7:30 PM MST
Nautical Twilight 5:13 AM MST 8:01 PM MST
Astronomical Twilight 4:41 AM MST 8:33 PM MST
Moon 6:09 AM MST (4/10) 7:42 PM MST (4/10)
Length of Visible Light 13h 46m
Length of Day
12h 55m
New Moon, 0% of the Moon is Illuminated
Apr 10
New Moon
Apr 18
First Quarter
Apr 25
Full
May 2
Last Quarter
May 9
New

Hourly Weather History & Observations

Time (MST) Temp. Windchill Dew Point Humidity Pressure Visibility Wind Dir Wind Speed Gust Speed Precip Events Conditions
12:51 AM 41.0 °F 34.7 °F 18.0 °F 40% 30.01 in 10.0 mi North 10.4 mph - N/A   Clear
1:51 AM 39.9 °F 33.4 °F 19.0 °F 43% 30.02 in 10.0 mi North 10.4 mph - N/A   Clear
2:51 AM 41.0 °F 33.1 °F 19.9 °F 43% 30.00 in 10.0 mi North 15.0 mph - N/A   Clear
2:55 AM 39.2 °F 30.8 °F 19.4 °F 45% 30.00 in 10.0 mi North 15.0 mph - N/A   Clear
3:51 AM 39.0 °F 31.4 °F 19.9 °F 46% 29.92 in 10.0 mi NNE 12.7 mph - N/A   Clear
4:51 AM 39.9 °F 33.4 °F 21.0 °F 47% 29.93 in 10.0 mi NE 10.4 mph - N/A   Clear
5:51 AM 34.0 °F 28.0 °F 21.0 °F 59% 29.98 in 10.0 mi ESE 6.9 mph - N/A   Clear
6:51 AM 37.9 °F 32.1 °F 21.9 °F 53% 30.00 in 10.0 mi East 8.1 mph - N/A   Clear
7:51 AM 45.0 °F 40.1 °F 21.9 °F 40% 30.02 in 10.0 mi NE 9.2 mph - N/A   Clear
8:51 AM 50.0 °F - 21.0 °F 32% 30.03 in 10.0 mi NNE 6.9 mph - N/A   Clear
9:51 AM 53.1 °F - 19.0 °F 26% 30.02 in 10.0 mi NNE 9.2 mph 19.6 mph N/A   Clear
10:51 AM 57.0 °F - 18.0 °F 22% 30.02 in 10.0 mi NNE 12.7 mph 27.6 mph N/A   Clear
11:51 AM 61.0 °F - 18.0 °F 19% 30.00 in 10.0 mi North 16.1 mph 24.2 mph N/A   Clear
12:51 PM 64.0 °F - 17.1 °F 16% 29.98 in 10.0 mi North 18.4 mph 26.5 mph N/A   Unknown
1:51 PM 64.0 °F - 16.0 °F 16% 29.96 in 10.0 mi NNW 15.0 mph 27.6 mph N/A   Clear
2:51 PM 64.9 °F - 12.9 °F 13% 29.94 in 10.0 mi North 12.7 mph 28.8 mph N/A   Clear
3:51 PM 66.9 °F - 12.0 °F 12% 29.92 in 10.0 mi NNW 23.0 mph 27.6 mph N/A   Clear
4:51 PM 66.9 °F - 12.9 °F 12% 29.91 in 10.0 mi NNW 18.4 mph - N/A   Clear
5:51 PM 66.0 °F - 14.0 °F 13% 29.92 in 10.0 mi NNW 18.4 mph - N/A   Clear
6:51 PM 63.0 °F - 15.1 °F 16% 29.92 in 10.0 mi NNW 12.7 mph - N/A   Clear
7:51 PM 55.4 °F - 15.8 °F 21% 30.02 in 10.0 mi Calm Calm - N/A   Clear
8:51 PM 50.0 °F - 19.9 °F 31% 29.94 in 10.0 mi SSE 8.1 mph - N/A   Clear
9:51 PM 48.0 °F - 21.0 °F 34% 29.93 in 10.0 mi ESE 4.6 mph - N/A   Clear
10:51 PM 48.0 °F - 19.9 °F 33% 29.91 in 10.0 mi Calm Calm - N/A   Clear
11:51 PM 42.1 °F 39.2 °F 21.9 °F 45% 29.91 in 10.0 mi SE 4.6 mph - N/A   Clear